• In Netherlands
  • List of Countries
  • For 7 days
  • Water Temperature
  • Satellite Maps
  • Weather Map
  • Weather Widgets
  • user-avatar
    Login

    Hourly Weather Rechytsa

    Today, 25 May, Thursday

    Time Temperature Precipitation Wind Pressure Humidity
    00:00 +15°C° 0.3 mm 2 mps 748 mmHg 96%
    01:00 +15°C° 0.3 mm 2 mps 748 mmHg 96%
    02:00 +15°C° 0.3 mm 2 mps 748 mmHg 96%
    03:00 +14°C° 0.4 mm 2 mps 748 mmHg 96%
    04:00 +14°C° 0.4 mm 2 mps 747 mmHg 96%
    05:00 +14°C° 0.4 mm 2 mps 747 mmHg 95%
    06:00 +13°C° 0.8 mm 3 mps 748 mmHg 94%
    07:00 +14°C° 0.8 mm 3 mps 748 mmHg 92%
    08:00 +14°C° 0.8 mm 3 mps 748 mmHg 90%
    09:00 +16°C° 1.2 mm 3 mps 748 mmHg 88%
    10:00 +16°C° 1.2 mm 3 mps 748 mmHg 86%
    11:00 +16°C° 1.2 mm 3 mps 748 mmHg 85%
    12:00 +17°C° 0.6 mm 3 mps 748 mmHg 83%
    13:00 +18°C° 0.6 mm 2 mps 748 mmHg 81%
    14:00 +18°C° 0.6 mm 2 mps 748 mmHg 79%
    15:00 +18°C° 1.4 mm 2 mps 748 mmHg 81%
    16:00 +18°C° 1.4 mm 2 mps 748 mmHg 84%
    17:00 +19°C° 1.4 mm 1 mps 748 mmHg 86%
    18:00 +18°C° 2.5 mm 1 mps 748 mmHg 89%
    19:00 +16°C° 2.5 mm 1 mps 747 mmHg 92%
    20:00 +15°C° 2.5 mm 1 mps 747 mmHg 96%
    21:00 +15°C° 0.3 mm 1 mps 747 mmHg 96%
    22:00 +14°C° 0.3 mm 1 mps 747 mmHg 97%
    23:00 +14°C° 0.3 mm 1 mps 747 mmHg 98%

    Tomorrow, 26 May, Friday

    Time Temperature Precipitation Wind Pressure Humidity
    00:00 +14°C° 0.1 mm 1 mps 748 mmHg 98%
    01:00 +13°C° 0.1 mm 1 mps 748 mmHg 98%
    02:00 +13°C° 0.1 mm 1 mps 748 mmHg 98%
    03:00 +13°C° 0 mm 1 mps 748 mmHg 98%
    04:00 +13°C° 0 mm 1 mps 748 mmHg 98%
    05:00 +12°C° 0 mm 1 mps 748 mmHg 97%
    06:00 +14°C° 0 mm 2 mps 748 mmHg 93%
    07:00 +15°C° 0 mm 2 mps 748 mmHg 88%
    08:00 +16°C° 0 mm 2 mps 748 mmHg 84%
    09:00 +18°C° 0 mm 2 mps 748 mmHg 72%
    10:00 +19°C° 0 mm 2 mps 748 mmHg 60%
    11:00 +21°C° 0 mm 3 mps 748 mmHg 49%
    12:00 +21°C° 0 mm 3 mps 748 mmHg 47%
    13:00 +22°C° 0 mm 3 mps 748 mmHg 46%
    14:00 +22°C° 0 mm 3 mps 748 mmHg 45%
    15:00 +21°C° 0.2 mm 3 mps 748 mmHg 51%
    16:00 +21°C° 0.2 mm 3 mps 748 mmHg 57%
    17:00 +20°C° 0.2 mm 3 mps 748 mmHg 62%
    18:00 +18°C° 0.1 mm 2 mps 748 mmHg 69%
    19:00 +17°C° 0.1 mm 2 mps 748 mmHg 76%
    20:00 +15°C° 0.1 mm 2 mps 748 mmHg 82%
    21:00 +14°C° 0 mm 2 mps 748 mmHg 84%
    22:00 +13°C° 0 mm 2 mps 749 mmHg 86%
    23:00 +12°C° 0 mm 2 mps 749 mmHg 88%

    Day after tomorrow, 27 May, Saturday

    Time Temperature Precipitation Wind Pressure Humidity
    00:00 +12°C° 0 mm 2 mps 749 mmHg 88%
    01:00 +10°C° 0 mm 2 mps 749 mmHg 89%
    02:00 +10°C° 0 mm 2 mps 749 mmHg 90%
    03:00 +10°C° 0 mm 2 mps 749 mmHg 91%
    04:00 +9°C° 0 mm 2 mps 749 mmHg 91%
    05:00 +9°C° 0 mm 2 mps 749 mmHg 91%
    06:00 +12°C° 0 mm 2 mps 749 mmHg 85%
    07:00 +14°C° 0 mm 2 mps 750 mmHg 78%
    08:00 +16°C° 0 mm 2 mps 750 mmHg 72%
    09:00 +17°C° 0.2 mm 3 mps 750 mmHg 67%
    10:00 +18°C° 0.2 mm 3 mps 750 mmHg 63%
    11:00 +19°C° 0.2 mm 4 mps 750 mmHg 58%
    12:00 +19°C° 0.1 mm 4 mps 750 mmHg 54%
    13:00 +20°C° 0.1 mm 4 mps 750 mmHg 51%
    14:00 +20°C° 0.1 mm 4 mps 750 mmHg 47%
    15:00 +20°C° 0.2 mm 4 mps 750 mmHg 51%
    16:00 +19°C° 0.2 mm 4 mps 751 mmHg 56%
    17:00 +18°C° 0.2 mm 4 mps 751 mmHg 60%
    18:00 +15°C° 0 mm 4 mps 751 mmHg 64%
    19:00 +14°C° 0 mm 3 mps 752 mmHg 67%
    20:00 +12°C° 0 mm 3 mps 753 mmHg 71%
    21:00 +12°C° 0 mm 2 mps 753 mmHg 72%
    22:00 +10°C° 0 mm 2 mps 754 mmHg 74%
    23:00 +9°C° 0 mm 2 mps 754 mmHg 75%

    28 May, Sunday

    Time Temperature Precipitation Wind Pressure Humidity
    00:00 +8°C° 0 mm 2 mps 755 mmHg 77%
    01:00 +7°C° 0 mm 2 mps 755 mmHg 78%
    02:00 +7°C° 0 mm 2 mps 755 mmHg 80%
    03:00 +7°C° 0 mm 2 mps 755 mmHg 79%
    04:00 +8°C° 0 mm 1 mps 756 mmHg 79%
    05:00 +8°C° 0 mm 1 mps 756 mmHg 78%
    06:00 +8°C° 0 mm 2 mps 756 mmHg 71%
    07:00 +9°C° 0 mm 2 mps 756 mmHg 64%
    08:00 +10°C° 0 mm 2 mps 756 mmHg 57%
    09:00 +12°C° 0 mm 2 mps 756 mmHg 55%
    10:00 +13°C° 0 mm 2 mps 756 mmHg 52%
    11:00 +13°C° 0 mm 2 mps 756 mmHg 49%
    12:00 +14°C° 0 mm 2 mps 756 mmHg 50%
    13:00 +14°C° 0 mm 3 mps 755 mmHg 52%
    14:00 +14°C° 0 mm 3 mps 755 mmHg 53%
    15:00 +14°C° 0 mm 3 mps 755 mmHg 60%
    16:00 +14°C° 0 mm 2 mps 754 mmHg 67%
    17:00 +13°C° 0 mm 2 mps 753 mmHg 75%
    18:00 +13°C° 0.1 mm 2 mps 753 mmHg 80%
    19:00 +12°C° 0.1 mm 2 mps 753 mmHg 86%
    20:00 +10°C° 0.1 mm 2 mps 752 mmHg 92%
    21:00 +12°C° 0.3 mm 2 mps 752 mmHg 93%
    22:00 +12°C° 0.3 mm 2 mps 751 mmHg 94%
    23:00 +12°C° 0.3 mm 3 mps 751 mmHg 96%

    29 May, Monday

    Time Temperature Precipitation Wind Pressure Humidity
    00:00 +12°C° 0.1 mm 3 mps 751 mmHg 96%
    01:00 +12°C° 0.1 mm 3 mps 750 mmHg 96%
    02:00 +12°C° 0.1 mm 3 mps 750 mmHg 96%
    03:00 +12°C° 0 mm 3 mps 750 mmHg 96%
    04:00 +12°C° 0 mm 3 mps 750 mmHg 96%
    05:00 +12°C° 0 mm 3 mps 750 mmHg 96%
    06:00 +13°C° 0 mm 3 mps 751 mmHg 91%
    07:00 +14°C° 0 mm 3 mps 751 mmHg 86%
    08:00 +16°C° 0 mm 3 mps 751 mmHg 81%
    09:00 +19°C° 0 mm 4 mps 750 mmHg 70%
    10:00 +21°C° 0 mm 4 mps 750 mmHg 60%
    11:00 +23°C° 0 mm 4 mps 750 mmHg 50%
    12:00 +25°C° 0 mm 4 mps 750 mmHg 47%
    13:00 +26°C° 0 mm 4 mps 749 mmHg 44%
    14:00 +27°C° 0 mm 5 mps 749 mmHg 42%
    15:00 +26°C° 0 mm 4 mps 749 mmHg 47%
    16:00 +26°C° 0 mm 3 mps 748 mmHg 51%
    17:00 +26°C° 0 mm 2 mps 748 mmHg 56%
    18:00 +24°C° 0.1 mm 2 mps 748 mmHg 62%
    19:00 +21°C° 0.1 mm 2 mps 747 mmHg 67%
    20:00 +19°C° 0.1 mm 2 mps 747 mmHg 73%
    21:00 +19°C° 0 mm 3 mps 747 mmHg 73%
    22:00 +18°C° 0 mm 3 mps 747 mmHg 73%
    23:00 +18°C° 0 mm 3 mps 747 mmHg 73%

    30 May, Tuesday

    Time Temperature Precipitation Wind Pressure Humidity
    00:00 +18°C° 0 mm 3 mps 746 mmHg 74%
    01:00 +17°C° 0 mm 3 mps 746 mmHg 75%
    02:00 +17°C° 0 mm 3 mps 746 mmHg 76%
    03:00 +17°C° 0 mm 3 mps 745 mmHg 78%
    04:00 +17°C° 0 mm 3 mps 745 mmHg 79%
    05:00 +17°C° 0 mm 2 mps 745 mmHg 81%
    06:00 +17°C° 0 mm 3 mps 745 mmHg 78%
    07:00 +18°C° 0 mm 3 mps 744 mmHg 76%
    08:00 +19°C° 0 mm 3 mps 744 mmHg 73%
    09:00 +19°C° 1.1 mm 3 mps 744 mmHg 79%
    10:00 +18°C° 1.1 mm 3 mps 744 mmHg 85%
    11:00 +18°C° 1.1 mm 3 mps 743 mmHg 91%
    12:00 +18°C° 0.3 mm 3 mps 743 mmHg 90%
    13:00 +18°C° 0.3 mm 4 mps 743 mmHg 89%
    14:00 +19°C° 0.3 mm 4 mps 743 mmHg 87%
    15:00 +20°C° 0.1 mm 4 mps 743 mmHg 83%
    16:00 +20°C° 0.1 mm 4 mps 744 mmHg 79%
    17:00 +21°C° 0.1 mm 4 mps 744 mmHg 75%
    18:00 +19°C° 0.1 mm 4 mps 745 mmHg 80%
    19:00 +17°C° 0.1 mm 4 mps 745 mmHg 85%
    20:00 +15°C° 0.1 mm 4 mps 746 mmHg 91%
    21:00 +14°C° 0 mm 4 mps 747 mmHg 90%
    22:00 +12°C° 0 mm 3 mps 747 mmHg 90%
    23:00 +11°C° 0 mm 3 mps 748 mmHg 89%
    Show more